OBJECT H, 63298

Orbit data source: Space-Track

You're viewing an Uncataloged Satellite

Recently launched and/or uncataloged satellites may have evolving metadata. Metadata may include but not limited to: Owner, Maufacturer, Bus, Motor, and Mission.

OBJECT H, 63298 is a Chinese satellite in SSO that was launched on Mon, 17 Mar 2025 UTC via a GUSHENXING 1 launch vehicle from the Jiuquan Satellite Launch Center, China (JSC). Unknown objects in Earth's orbit typically refer to objects detected orbiting the Earth but have not yet been identified or cataloged. These objects could be anything from previously untracked satellites, spent rocket stages, debris from satellite collisions, or even natural meteoroids temporarily captured by Earth's gravity.

Loading next visibility...
Identifier
63298, 2025-055H
Orbit
SSO
Country
Flag of CNCN / PRC
Related business
None
Manufacturer
ZHWK/HITSAT
Mission
Operational Commercial Imaging
Bus & Motor
ZK1, Unknown motor
Mass
~250 kg wet, ~250 kg dry
Launch date (UTC)
2025-03-17 (6 months ago)
Launch vehicle
GUSHENXING 1
Launch site
Jiuquan Satellite Launch Center, China (JSC)
Object type
Unknown
Shape & HBR
Box + 3 Pan, 3.0 m
Radar Cross Section
3.533 m², Medium (>0.1 m² and < 1m²)

Expand to show TLE details & history
Last TLE update: 7 hours ago

TLE from 7 hours ago
0 OBJECT H
1 63298U 25055H   25260.95936543  .00017667  00000-0  89502-3 0  9998
2 63298  97.6206  36.1292 0010259  20.0552 340.1083 15.16998396 27896
Epoch: 2025-09-17T23:01Z
TLE epoch observation values (Epoch: 2025-09-17T23:01:29.173Z)
Latitude
0.00009°
Longitude
53.6298°
Altitude
511.348 km
Speed
7.612 km/s
True Right ascension
02h 24m 31s
True Declination
0° 00' 00"
Sunlit
Object was in full shadow at epoch
Visualization orbit readout
Latitude
Unknown
Longitude
Unknown
Altitude
Unknown
Speed
Unknown
Apparent Right ascension
Unknown
Apparent Declination
Unknown
Sunlit
N/A
Visualization observer readout
Local Sidereal Time
22:29:29
Azimuth
Unknown
Elevation
Unknown
Doppler factor
Unknown
Orbital elements
Apogee altitude
518.966 km
Perigee altitude
504.829 km
Semi-major axis
6,890.034 km
Eccentricity
0.00103
Inclination
97.6206°
RAAN
36.1292°
Arg. of periapsis
20.0552°
True anomaly
340.06825°
Mean anomaly
340.1083°
Eccentric anomaly
340.08828°
Mean motion
3.79499 °/min
Orbital period
94.86 mins
BSTAR
0.00089502
Loading maneuver chart data...
Computing Atmospheric mass density...
Loading historical data...
Loading historical data...
Loading historical data...
Loading historical data...
Loading historical data...
Loading historical data...
Loading historical data...

Documentation

Showing up to 5 results
|